Home > Weather > Kingston > Past weeks

Flag for Norfolk Island Weather for the Past 2 Weeks in Kingston, Norfolk Island

Now
77 °F

Broken clouds.


Feels Like: 79 °F
Forecast: 74 / 79 °F
Wind: 12 mph from Southeast

Location: Norfolk Island Airport

Current Time: Feb 12, 2016 at 1:20:53 PM

Latest Report: Feb 12, 2016 at 12:00 PM


Visibility: N/A

Pressure: 29.89 "Hg

Humidity: 79%

Dew point: 70 °F

Location of KingstonLocation

Historic Weather in Kingston — Graph

°F

Kingston Temperature Yesterday

Maximum temperature yesterday: 77 °F (at 11:30 AM)
Minimum temperature yesterday: 72 °F (at 12:01 AM)
Average temperature yesterday: 74 °F

High & Low Weather Summary for the Past Weeks

 TemperatureHumidityPressure
High82 °F (Feb 1, 12:00 PM)100% (Jan 29, 3:30 AM)30.01 "Hg (Jan 29, 3:30 AM)
Low68 °F (Jan 29, 3:30 AM)65% (Jan 29, 2:00 PM)29.56 "Hg (Feb 4, 12:00 PM)
Average75 °F85%29.79 "Hg
* Reported Jan 28 12:00 Noon — Feb 12 12:00 Noon, Kingston, Weather by CustomWeather, © 2016

Note: Actual official high and low records may vary slightly from our data, if they occured in-between our weather recording intervals... More about our weather records

Advertising

Kingston Weather History for the Previous 24 Hours

 ConditionsComfort  
Time TempWeatherWind HumidityBarometerVisibility
12:00 PM
Fri, Feb 12
77 °FBroken clouds.12 mph79%29.89 "HgN/A
11:30 AM79 °FBroken clouds.13 mph79%29.89 "HgN/A
11:00 AM77 °FScattered clouds.14 mph79%29.89 "HgN/A
10:00 AM75 °FScattered showers. Broken clouds.14 mph83%29.92 "HgN/A
9:00 AM75 °FScattered showers. Scattered clouds.14 mph83%29.89 "HgN/A
8:00 AM73 °FScattered showers. Broken clouds.12 mph89%29.89 "HgN/A
7:30 AM73 °FScattered showers. Partly sunny.10 mph94%29.89 "HgN/A
7:00 AM72 °FSprinkles. Broken clouds.14 mph94%29.89 "HgN/A
6:30 AM72 °FCloudy.14 mph88%29.89 "HgN/A
6:00 AM72 °FMostly cloudy.14 mph88%29.89 "HgN/A
5:00 AM73 °FMostly cloudy.12 mph83%29.86 "HgN/A
4:00 AM73 °FOvercast.13 mph83%29.86 "HgN/A
3:01 AM72 °FMostly cloudy.12 mph88%29.86 "HgN/A
2:00 AM73 °FMostly cloudy.12 mph83%29.86 "HgN/A
1:30 AM73 °FMostly cloudy.13 mph83%29.86 "HgN/A
1:00 AM73 °FMostly cloudy.13 mph83%29.86 "HgN/A
12:00 AM73 °FMostly cloudy.13 mph83%29.89 "HgN/A
11:30 PM
Thu, Feb 11
73 °FMostly cloudy.14 mph83%29.89 "HgN/A
11:00 PM73 °FOvercast.15 mph83%29.89 "HgN/A
10:30 PM73 °FMostly cloudy.13 mph83%29.89 "HgN/A
10:00 PM73 °FOvercast.15 mph78%29.89 "HgN/A
9:00 PM73 °FMostly cloudy.15 mph78%29.89 "HgN/A
8:30 PM73 °FOvercast.16 mph78%29.89 "HgN/A
8:00 PM73 °FMostly cloudy.15 mph78%29.89 "HgN/A
7:30 PM73 °FOvercast.16 mph78%29.89 "HgN/A
7:00 PM73 °FOvercast.16 mph83%29.86 "HgN/A
6:30 PM73 °FMostly cloudy.17 mph83%29.86 "HgN/A
6:03 PM73 °FCloudy.17 mph83%29.86 "HgN/A
5:00 PM75 °FScattered clouds.16 mph78%29.83 "HgN/A
4:47 PM75 °FMostly cloudy.18 mph78%29.83 "HgN/A
4:00 PM75 °FMostly cloudy.16 mph78%29.83 "HgN/A
3:56 PM75 °FMostly cloudy.16 mph78%29.83 "HgN/A
3:30 PM75 °FMostly cloudy.17 mph78%29.83 "HgN/A
3:00 PM77 °FMostly cloudy.14 mph79%29.83 "HgN/A
2:30 PM75 °FMostly cloudy.16 mph83%29.83 "HgN/A
2:02 PM75 °FMostly cloudy.18 mph78%29.83 "HgN/A
1:00 PM77 °FScattered clouds.20 mph74%29.86 "HgN/A
Weather by CustomWeather, © 2016

See weather overviewHow to use our weather pages